星链-3303 (STARLINK-3303 )

导读 | 星芒AI

STARLINK-3303 是 SpaceX Starlink 项目中的一颗低轨通信卫星,属于第三代星链卫星(v1.5 或 v2 版本)。它于2023年发射,部署在约540公里高度的近地轨道,旨在为全球用户提供高速互联网服务。该卫星采用先进推进系统和激光通信技术,提升网络效率与稳定性。作为星链星座的一部分,STARLINK-3303 支持偏远地区宽带接入,推动全球互联网覆盖。

基本信息
目录编号:
50162
目录名称:
STARLINK-3303
国际标识:
2021-125G
轨道中心:
EARTH
卫星名称:
星链-3303
卫星全名:
星链-3303 (STARLINK-3303 )
卫星状态:
已陨落 最后检测时间 2024-02-18
发射日期:
2021-12-18 UTC
国别 :
美国 (US)
星等 :
--
轨道信息
数据来源 国际轨道数据
星历时间: 2024-02-18T21:02:23+0800
轨道信息已过期628天
半长轴: 6542.743km
偏心率: 0.0003146
轨道倾角: 53.150°
近地点辐角 94.855°
升交点赤经 45.174°
平近点角 359.160°
近地点: 162.549km
远地点: 166.667km
周期: 87.781分钟
每日圈数: 16.4045
详细信息
固有亮度:
5
最大亮度:
2.5
卫星平台:
Starlink v1.5
覆盖范围:
全球
运营商:
太空探索技术公司
运营商所在国:
美国
制造商(研发单位):
太空探索技术公司
制造商所在国:
美国
使用方式:
暂无
卫星简介
星链(Starlink)计划是由太空探索技术公司(SpaceX)提出的一个巨型低轨卫星互联网星座项目,计划在2019年至2024年间在太空搭建由约1.2万颗卫星组成的“星链”网络,其中1584颗将部署在地球上空550千米处的近地轨道,并从2020年开始工作。该卫星已陨落。